Wind_Speed
16 16 17 16 16 16 16 16 16 16 16 15 14 12 12 12 10 10 9 10 10 10 10 10 10 9 10 11 11 12 13 13 12 8 9 12 10 8 8 15 19 22 25 23 22 18 13 11 12 13 9 6 3 4 5 2 2 2 1 2 1 1 1 3 5 5 2 2 8 9 6 7 9 7 5 7 9 10 9 8 8 8 8 13 18 24 27 26
17 17 17 17 17 17 17 17 17 17 16 16 15 13 12 12 11 11 9 9 10 9 9 9 9 9 10 11 12 12 12 13 11 11 16 14 9 11 12 17 22 26 28 27 25 19 14 10 12 13 8 4 3 4 6 3 3 3 2 2 2 1 2 2 6 6 2 2 9 10 7 7 7 8 6 8 10 10 11 10 10 12 13 17 23 26 26 26
17 17 18 17 18 18 18 18 18 17 17 16 16 15 13 12 12 11 10 9 9 9 8 8 9 9 9 10 12 11 10 10 7 9 9 8 12 15 14 21 26 28 30 29 27 21 16 13 15 13 6 3 3 4 6 4 4 4 3 3 2 1 4 4 6 7 2 4 10 11 8 7 6 6 5 9 12 10 10 11 12 13 15 19 22 24 26 25
18 18 18 18 18 18 18 18 18 18 18 17 16 15 14 13 12 11 10 9 9 9 8 7 8 8 9 9 10 10 8 5 3 3 3 5 9 17 18 25 29 29 29 28 25 21 19 17 13 9 4 4 3 4 6 6 3 3 4 3 1 2 6 4 6 6 0 5 10 11 10 8 7 5 5 11 11 8 10 10 13 16 19 20 20 23 26 24
19 19 18 19 19 18 18 18 18 18 18 18 17 16 15 14 13 12 10 9 9 8 8 7 7 7 8 8 7 7 5 2 1 5 7 7 10 21 23 29 31 30 29 25 21 19 19 16 11 6 3 4 5 5 5 7 4 2 5 6 5 5 8 6 6 2 3 6 10 11 10 8 7 6 8 12 7 5 8 9 13 18 21 22 22 23 24 23
19 19 19 19 19 19 19 19 19 19 19 19 19 18 16 15 14 12 11 9 8 7 7 7 6 5 6 6 5 4 2 2 4 9 8 1 17 25 27 31 30 29 29 24 20 17 15 12 10 7 4 4 7 6 3 7 6 4 5 6 8 8 9 7 5 2 4 7 10 10 9 8 9 7 9 10 1 3 8 10 14 17 21 24 24 23 22 21
19 19 19 19 19 19 19 19 19 19 19 19 20 19 17 16 14 13 11 8 8 7 7 7 5 4 4 4 2 2 1 4 6 6 3 9 22 26 27 27 28 29 27 23 19 15 13 12 10 7 6 4 6 7 3 6 8 6 6 7 9 8 10 10 6 4 6 7 8 9 9 10 11 7 9 8 2 6 11 11 14 17 22 24 23 21 21 21
19 19 19 19 18 19 19 19 20 19 19 20 21 20 19 17 15 13 11 8 7 7 6 7 5 3 3 1 0 1 2 5 4 1 6 16 24 26 26 23 25 27 24 22 18 14 13 12 10 6 6 4 4 8 4 5 7 7 8 8 8 8 10 10 5 6 7 5 6 9 9 10 9 6 8 8 4 9 12 13 15 18 20 21 20 21 20 20
19 19 19 20 19 19 20 20 20 20 20 21 22 21 20 18 16 14 11 9 7 7 6 6 4 2 1 1 0 2 2 3 2 8 12 20 25 26 25 22 24 26 22 19 16 16 13 10 10 5 4 4 5 8 6 4 4 6 9 9 9 11 12 10 6 8 8 5 8 10 8 8 7 5 7 8 6 11 14 14 16 18 19 19 19 20 20 19
19 20 20 21 21 20 20 20 20 21 21 22 24 22 21 19 17 15 12 9 7 7 6 5 5 4 2 2 1 1 1 3 5 14 17 21 25 26 24 21 24 24 19 14 15 16 10 8 9 3 3 4 5 5 5 4 1 2 7 9 11 12 10 7 5 8 8 7 9 9 8 9 7 3 5 8 9 12 15 16 16 17 18 18 17 18 19 20
19 20 21 21 21 21 21 21 21 21 22 24 25 23 22 20 18 15 12 9 6 7 7 6 7 6 4 2 2 2 3 2 10 17 18 21 24 26 24 22 23 20 17 12 12 14 8 9 8 2 2 3 5 4 3 3 4 4 7 8 10 8 4 2 3 9 7 6 7 7 7 7 7 4 4 9 12 13 16 16 17 17 16 17 18 17 17 18
20 21 22 22 22 23 22 22 22 23 24 25 25 24 23 20 17 14 12 9 7 8 8 9 9 8 5 2 4 5 3 4 12 20 20 21 23 24 21 22 23 20 19 12 11 13 9 11 10 3 1 1 5 3 1 2 5 5 5 7 9 6 1 2 4 8 6 5 7 8 6 6 8 5 4 11 12 13 16 16 16 16 15 16 16 15 14 17
21 22 22 23 23 23 23 23 23 25 26 26 26 26 23 19 15 13 11 8 8 9 10 10 10 9 4 2 4 6 2 3 8 18 22 21 19 18 16 20 21 18 19 14 14 16 10 10 9 4 1 1 3 1 2 3 4 4 3 4 6 6 1 4 4 7 4 5 9 8 2 3 9 7 6 11 14 14 15 15 15 15 14 15 15 14 14 17
22 22 22 23 24 24 24 23 24 26 26 27 26 24 20 16 13 11 9 9 10 10 12 11 10 8 3 5 3 3 6 2 6 17 22 20 15 12 13 18 17 13 12 10 14 18 12 7 4 3 1 1 0 2 3 1 2 2 2 2 2 3 2 4 4 7 4 4 9 7 2 2 5 9 9 11 14 15 14 15 15 14 14 14 14 14 14 16
23 23 23 24 24 24 24 24 24 25 26 25 23 18 14 11 8 9 9 10 12 13 14 11 9 6 1 6 4 2 5 5 8 18 21 20 15 10 11 14 12 10 8 5 6 16 14 5 3 4 2 1 2 3 1 0 0 0 2 3 1 2 1 4 5 7 4 4 9 6 2 2 1 7 11 10 14 16 14 14 15 15 15 15 14 14 14 15
23 23 23 24 25 25 25 24 24 24 24 21 15 12 12 9 3 4 8 12 14 15 13 8 8 5 2 2 1 3 5 4 7 13 19 21 16 11 12 13 9 7 7 3 2 9 11 4 3 2 1 2 2 1 1 1 2 1 3 2 1 2 1 3 4 5 5 6 9 7 3 2 3 4 10 11 14 15 13 14 15 15 15 15 13 13 13 14
24 24 25 25 25 25 24 23 23 23 21 15 9 12 15 11 8 9 12 15 15 13 7 4 5 4 3 2 2 2 3 4 4 10 20 20 14 14 15 10 7 7 6 4 3 7 9 5 3 2 2 3 1 1 4 5 5 2 3 2 0 1 2 1 3 5 7 6 9 8 5 1 3 4 9 11 14 15 13 14 15 14 14 14 13 13 14 13
24 25 26 25 24 25 23 22 22 22 18 8 7 14 18 17 16 19 20 17 13 8 4 2 3 3 3 3 2 1 2 2 1 7 19 17 12 15 13 8 9 10 7 5 5 6 7 5 4 4 3 5 3 4 5 4 4 4 4 3 1 1 1 1 1 5 9 6 7 8 7 7 2 5 8 10 13 14 13 13 14 14 14 13 13 13 13 13
26 27 26 25 24 23 22 21 21 20 14 4 9 13 15 14 13 15 16 11 5 2 1 2 3 1 1 2 2 4 5 3 2 6 15 15 13 13 10 10 11 11 8 5 5 6 6 5 5 6 7 9 7 6 5 1 3 5 3 2 2 1 2 1 2 3 9 6 6 8 8 10 7 6 8 10 12 13 13 12 12 13 14 13 13 12 12 13
29 28 26 24 23 22 20 20 19 15 11 3 5 4 5 4 3 4 4 3 4 3 2 3 5 3 3 2 3 6 5 2 2 6 14 17 16 13 9 9 9 7 6 6 6 6 6 6 8 8 8 9 7 7 6 1 3 4 3 3 2 0 1 0 2 1 6 6 6 9 9 9 7 7 9 10 11 12 13 13 13 14 15 14 14 14 14 14
30 27 25 24 22 21 19 18 15 10 8 4 3 1 1 1 1 1 2 3 5 6 7 5 5 6 7 4 4 5 2 1 2 5 14 17 16 12 5 6 9 6 5 6 7 5 5 8 9 7 7 8 7 8 7 3 2 1 1 1 0 1 1 1 3 2 5 5 3 6 8 10 9 7 9 11 12 13 14 15 15 16 15 14 15 16 15 12
28 26 24 23 22 20 18 15 10 4 4 5 4 3 3 2 3 3 2 3 4 4 6 4 3 7 8 7 8 3 1 1 4 6 11 14 12 8 5 6 8 6 5 7 7 6 7 8 7 8 9 8 5 6 7 5 4 3 2 2 1 1 1 1 3 3 4 5 2 3 6 9 9 8 9 13 14 14 15 16 16 16 15 14 15 15 14 13
27 25 23 22 21 19 16 11 5 2 3 3 6 5 2 5 5 6 5 3 4 2 3 3 3 5 5 5 6 6 3 2 5 6 10 13 7 4 7 7 7 7 7 8 7 8 7 6 8 9 9 9 5 4 6 4 4 3 3 4 2 1 1 1 3 4 3 4 2 1 5 7 6 6 8 13 14 12 14 16 14 14 16 15 14 14 14 15
26 24 22 21 20 18 12 5 3 3 4 1 6 5 6 10 6 6 5 2 3 3 2 3 2 4 3 2 5 7 3 1 4 6 9 11 5 3 6 7 6 7 7 7 7 6 3 4 9 9 8 10 7 5 6 5 4 3 4 5 3 2 3 1 2 2 3 5 2 1 4 3 3 5 7 8 12 12 12 14 13 12 13 13 13 14 15 16
25 23 21 19 18 15 6 3 4 5 5 2 4 6 11 14 6 7 4 2 1 2 1 2 1 3 2 1 4 4 2 1 1 2 5 9 6 3 4 3 4 7 8 7 7 6 3 5 9 9 8 8 7 6 6 6 4 3 5 7 7 4 4 2 1 3 3 3 2 3 4 1 1 2 4 3 8 11 11 13 14 13 13 13 14 14 15 15
25 22 20 18 16 11 4 4 4 7 3 3 2 9 12 14 5 7 3 2 1 2 1 2 1 2 2 1 3 3 3 3 1 1 3 5 4 3 4 2 1 4 8 7 4 4 3 5 8 9 8 8 7 6 5 5 5 4 4 6 8 6 5 4 2 3 3 1 1 3 4 1 2 4 6 4 5 8 9 12 13 12 12 14 14 14 14 15
25 22 20 16 13 10 4 1 5 5 1 1 6 10 12 13 2 6 3 1 2 2 2 0 0 1 0 0 1 2 3 3 1 3 5 2 1 1 3 5 3 3 5 5 3 2 5 6 6 8 9 8 7 6 6 7 6 3 2 4 8 9 8 7 5 3 2 2 1 3 3 2 1 7 10 6 2 3 5 9 11 11 12 13 14 14 15 16
24 22 20 14 11 9 4 1 3 1 0 4 8 11 14 9 3 4 3 0 3 2 1 1 1 1 1 0 1 0 1 2 2 2 5 6 4 1 5 6 6 6 5 5 5 3 5 8 7 8 7 6 6 4 7 10 7 3 2 2 5 7 8 7 5 3 1 2 3 4 3 2 1 6 10 8 5 5 5 7 9 11 13 14 14 15 15 15
23 21 18 14 9 7 5 4 1 0 3 7 9 13 13 3 4 2 2 2 3 1 0 1 1 1 1 1 2 2 2 2 2 2 3 6 8 2 3 2 4 7 4 3 5 3 2 5 5 7 6 5 5 5 9 12 7 2 4 3 2 2 2 3 3 2 2 3 4 5 7 4 2 6 9 9 8 9 9 9 8 10 13 14 14 14 14 13
22 18 16 14 10 7 8 6 3 2 7 10 12 13 7 2 3 1 1 3 3 1 0 2 2 2 1 2 3 5 5 5 4 4 4 4 7 7 3 0 2 5 3 1 3 2 2 1 1 2 3 2 4 5 10 13 7 4 6 4 2 2 1 1 1 1 2 4 3 4 7 4 1 5 8 8 8 10 9 8 9 9 10 13 13 12 14 13
19 16 15 14 10 7 6 6 7 9 11 12 12 7 1 2 1 0 3 2 2 3 2 2 2 3 3 5 4 4 6 7 6 5 5 4 7 10 5 1 1 2 3 3 4 2 3 4 2 1 1 2 2 3 4 9 8 6 5 5 3 2 1 2 2 2 4 4 1 2 5 3 2 3 7 8 9 11 9 9 11 12 8 7 11 12 13 13
15 14 15 14 13 9 6 8 12 13 13 11 6 1 2 0 1 2 2 1 1 4 3 2 4 3 6 9 8 6 5 6 7 6 6 5 7 8 6 4 2 2 4 3 5 4 4 4 2 1 1 5 2 5 3 4 7 7 6 6 5 4 4 5 4 3 4 2 2 3 5 6 5 5 7 9 10 11 10 9 10 11 11 8 6 11 13 13
11 12 16 16 15 14 13 13 12 11 10 5 0 1 1 2 4 3 4 3 2 3 3 3 4 2 5 8 7 7 7 6 6 5 5 5 7 6 5 8 6 2 2 1 5 5 4 3 4 0 2 5 2 4 4 4 8 9 8 7 6 5 6 7 4 2 4 3 2 1 2 4 6 5 8 9 10 11 10 10 10 10 10 10 8 4 9 12
7 9 16 17 17 20 18 13 9 9 7 2 2 2 3 4 3 3 4 4 2 3 4 2 2 5 8 6 3 3 6 8 7 6 5 4 6 4 4 10 11 4 1 0 3 3 4 4 3 2 1 4 3 1 1 3 8 8 7 7 6 4 5 5 5 5 5 4 4 1 2 4 7 5 7 7 8 10 10 11 11 12 11 10 10 9 4 5
8 7 14 18 21 25 21 12 9 8 4 1 3 5 5 3 3 3 3 5 4 4 5 3 2 5 7 4 4 4 4 4 4 7 9 6 5 5 4 7 11 7 2 1 1 1 1 3 3 3 1 3 4 2 3 2 6 4 3 6 6 4 2 2 2 2 3 4 4 2 2 4 7 6 7 8 9 11 12 14 14 15 14 12 11 12 11 8
10 6 11 19 24 25 20 13 10 6 1 2 6 6 3 2 2 3 4 5 4 6 7 4 4 5 4 2 4 7 7 4 2 4 6 6 6 7 6 4 6 8 3 0 1 0 1 3 4 2 2 3 6 2 1 1 2 4 5 6 3 0 0 1 2 2 0 5 4 2 4 6 5 5 7 9 10 13 14 15 16 16 15 14 12 12 11 10
11 5 8 22 27 23 18 14 9 4 2 5 7 4 1 1 2 3 5 7 5 5 4 2 3 3 2 2 3 6 5 3 4 3 3 3 4 7 8 4 3 6 5 2 1 1 0 3 4 3 1 5 7 1 4 7 3 3 5 5 4 2 1 0 3 3 5 7 3 3 6 5 2 2 6 10 12 14 15 14 15 15 15 14 13 13 13 13
10 4 5 19 25 18 14 13 10 6 5 6 7 5 1 2 3 4 5 6 4 2 2 3 2 3 2 2 3 6 5 1 3 3 2 3 3 4 7 4 3 7 7 3 1 1 1 2 4 3 1 3 6 1 3 7 7 2 1 2 2 2 3 2 2 5 8 7 4 4 6 4 3 2 6 10 12 13 13 13 13 15 16 14 13 14 14 14
8 2 2 17 23 14 14 17 12 6 6 6 5 4 1 2 4 6 7 5 1 1 3 3 2 3 4 3 2 5 7 4 3 2 2 3 2 3 6 3 4 9 9 5 1 0 2 0 3 3 3 2 4 4 2 5 5 1 1 1 1 1 2 2 1 2 5 5 5 5 4 3 4 4 6 8 11 12 12 12 12 14 14 13 13 14 14 14
5 1 2 19 21 10 17 22 14 6 5 5 2 2 2 2 4 8 9 7 4 2 3 3 3 3 5 5 3 4 7 6 4 3 3 4 1 2 7 5 4 9 8 3 3 1 2 0 1 3 4 0 2 6 5 5 5 2 1 2 2 2 1 2 1 2 1 4 5 6 5 4 3 5 6 8 9 10 11 11 10 11 13 13 13 14 13 14
4 1 2 20 20 7 15 16 8 4 4 3 2 2 4 3 4 8 9 7 5 5 4 4 5 4 4 4 4 3 4 5 5 4 4 4 3 2 7 8 5 6 6 2 3 4 2 1 1 2 4 4 5 3 4 6 7 6 4 3 2 2 1 4 4 1 1 0 2 4 5 4 3 5 7 9 8 9 10 11 9 10 12 13 13 14 14 14
3 2 5 20 17 9 13 8 2 3 3 3 3 2 4 4 5 7 8 6 5 5 5 6 6 6 4 4 4 3 3 5 5 4 5 5 6 4 8 10 6 4 3 1 2 4 2 1 4 4 4 4 5 3 3 4 4 5 7 5 3 2 2 2 4 3 2 1 1 2 4 4 3 5 6 7 8 8 9 10 10 10 12 12 13 14 14 14
2 1 8 21 13 4 8 6 2 4 4 2 2 2 3 4 5 7 7 7 5 4 5 6 4 5 5 4 3 3 3 4 5 4 4 4 7 5 7 10 7 3 3 1 1 2 1 1 3 4 3 1 4 4 1 3 1 2 6 7 5 3 2 2 1 1 2 2 1 2 4 4 3 5 6 6 7 7 8 10 10 10 10 11 13 14 13 14
2 2 6 20 16 6 4 4 3 4 4 3 4 4 4 4 6 8 8 8 6 3 4 5 4 4 4 3 4 3 2 2 4 4 2 3 3 4 6 10 9 6 4 3 2 2 1 1 1 3 4 3 4 5 3 1 3 3 4 7 8 7 4 1 1 0 2 2 1 2 4 5 5 5 5 6 7 8 9 9 10 10 10 11 11 12 12 13
2 1 2 15 20 12 4 1 3 5 3 4 6 6 4 3 4 6 6 7 6 4 3 3 3 3 3 3 5 6 5 4 3 1 1 2 2 2 6 9 9 7 7 6 3 2 1 2 1 1 2 3 2 2 2 1 2 2 3 6 8 9 8 2 1 1 2 2 1 1 4 7 7 5 6 6 7 8 9 9 9 10 10 11 11 11 12 12
1 2 1 6 10 7 3 2 2 3 3 3 4 5 5 4 2 3 4 5 6 6 5 3 3 2 4 5 6 8 8 7 5 3 2 2 2 1 4 6 7 9 9 9 7 2 2 3 3 3 3 2 3 3 2 1 2 2 4 7 7 8 8 3 0 1 2 5 3 4 5 10 8 5 5 5 6 7 8 8 9 9 10 11 11 11 12 12
1 2 2 2 3 3 4 4 4 2 1 1 2 3 5 5 3 4 4 4 4 5 4 4 4 4 4 5 5 5 6 7 7 5 3 2 1 1 3 4 7 11 9 7 6 2 3 3 4 6 7 6 5 5 2 1 3 3 4 5 5 7 8 5 4 3 0 2 4 3 5 9 7 4 4 4 5 6 7 8 8 9 9 10 10 11 13 13
2 2 1 1 1 2 3 4 4 5 5 2 2 2 4 7 7 5 3 2 3 4 3 4 7 7 4 2 2 3 3 4 5 3 2 2 1 1 2 3 6 9 8 5 5 2 3 3 2 4 7 6 5 5 3 2 3 1 2 3 4 6 6 5 5 3 3 2 6 6 6 7 6 4 4 4 4 5 6 7 7 8 9 10 11 12 14 15
2 2 0 1 1 1 1 3 3 5 7 4 3 3 4 7 8 4 2 2 4 5 4 4 6 7 5 2 2 3 2 2 3 1 1 2 2 1 2 2 4 7 6 5 4 2 1 3 3 4 6 6 4 3 3 3 3 2 2 3 3 3 3 2 2 2 2 3 6 7 8 7 6 4 4 4 3 4 4 5 7 9 11 11 12 13 13 14
1 2 0 1 2 2 2 2 2 4 5 3 2 3 2 5 7 4 2 3 4 4 4 5 6 5 5 5 5 6 4 2 3 2 1 1 1 1 1 1 1 4 5 3 2 2 1 2 3 3 4 4 3 3 3 4 4 2 3 4 2 1 3 2 2 1 0 2 5 9 9 7 4 3 5 4 3 3 4 6 8 9 11 12 13 13 13 13
2 1 0 2 2 3 3 2 2 2 3 2 2 2 2 3 4 3 3 4 3 2 2 4 5 4 4 7 8 7 4 1 3 3 1 1 1 1 1 0 1 2 4 3 2 2 1 2 3 2 3 3 1 3 4 3 1 3 5 6 6 4 4 4 4 3 1 2 6 8 7 5 5 5 5 4 3 3 4 6 7 7 10 11 12 13 13 13
2 1 1 1 1 2 2 1 1 1 2 2 2 2 2 2 1 2 3 4 3 3 2 2 3 3 4 7 8 6 3 1 2 4 2 1 4 3 2 3 2 2 3 2 1 2 1 2 3 2 2 3 1 3 4 1 3 4 4 5 5 4 4 4 5 5 3 1 2 3 4 6 7 6 5 4 2 2 3 4 5 6 8 9 10 11 12 13
Wind_Direction
352 351 350 348 346 345 343 343 342 342 343 343 343 344 343 340 342 343 340 341 339 338 343 335 324 320 323 332 335 331 326 316 311 298 254 265 259 227 192 173 170 159 161 164 155 142 134 134 134 146 147 140 162 160 163 192 225 215 228 254 276 277 18 25 358 351 354 135 145 152 156 144 138 131 131 136 125 128 124 100 94 90 104 129 130 136 144 147
349 348 347 346 345 342 341 340 340 339 338 340 341 340 341 339 338 340 339 339 336 333 338 332 320 312 315 327 332 331 325 316 305 276 259 264 250 214 185 170 170 165 164 162 158 150 143 144 144 151 152 141 161 162 167 180 200 221 227 256 258 268 346 337 326 323 309 130 145 158 158 152 146 142 158 155 140 136 127 115 110 108 115 126 133 140 146 149
346 345 345 344 343 340 339 338 337 336 336 337 338 337 339 338 335 337 336 335 334 331 329 326 318 307 309 324 332 333 328 320 294 266 272 271 234 211 183 172 171 169 170 168 164 159 144 138 146 150 143 145 154 162 177 176 188 218 222 255 241 295 313 295 315 319 299 138 149 161 157 157 154 146 176 161 150 152 146 141 136 131 134 136 141 146 150 153
344 343 343 343 341 339 338 337 335 334 333 334 335 335 337 337 333 332 332 330 329 327 320 319 317 304 308 323 333 337 327 303 278 268 322 317 215 187 174 170 170 171 173 169 165 160 141 133 144 147 136 147 145 159 185 183 182 203 210 256 252 343 310 297 323 328 248 154 153 157 155 158 159 159 177 160 155 170 171 165 152 146 146 146 150 153 155 157
343 342 343 341 339 338 337 335 334 333 332 332 333 333 334 334 331 328 327 325 324 322 315 309 310 305 306 325 338 340 323 243 349 331 323 311 187 169 165 166 169 171 170 163 155 151 140 137 144 144 147 150 155 169 194 194 192 221 226 263 272 287 295 303 323 324 130 145 150 158 160 151 156 167 178 170 166 177 173 170 154 149 151 153 156 157 159 161
342 342 342 340 339 337 336 335 333 333 332 332 331 331 332 331 327 324 320 319 320 314 310 301 299 303 304 327 344 340 305 259 329 328 333 213 165 160 159 165 170 168 164 155 143 143 138 144 156 156 169 155 171 180 184 191 196 243 245 260 264 271 277 290 307 220 154 158 160 164 158 143 161 173 180 182 135 114 152 154 152 150 152 154 157 160 162 164
341 341 340 339 337 335 335 333 332 331 331 332 331 328 328 327 322 318 315 313 314 308 302 295 284 282 304 328 350 10 276 278 310 322 352 148 157 155 157 164 166 163 159 148 142 150 145 156 171 161 169 158 181 190 159 177 192 235 257 267 267 271 269 276 284 220 185 178 163 156 153 158 175 172 176 185 84 120 142 143 147 147 152 155 159 165 166 166
341 340 338 337 334 333 333 331 331 330 328 329 329 327 324 322 315 310 309 306 306 299 289 284 268 245 296 319 76 336 225 267 300 163 143 151 152 153 155 157 162 161 157 152 150 154 149 162 172 155 176 163 173 189 173 171 187 223 253 269 273 278 274 279 274 205 183 171 150 151 159 169 174 154 170 178 128 135 140 138 144 146 154 160 163 166 167 168
340 338 336 335 332 331 330 329 330 329 328 326 327 325 320 317 310 305 303 300 295 284 278 267 238 200 244 123 85 288 216 292 258 164 154 154 154 155 156 153 159 159 154 154 153 154 157 170 170 166 193 163 166 186 184 197 185 207 243 266 277 284 286 290 265 198 175 161 157 159 165 167 160 142 167 171 146 141 141 143 146 153 160 164 167 169 170 172
339 337 334 333 331 330 329 328 327 327 327 326 326 323 318 314 307 302 297 294 282 261 257 240 208 175 176 160 171 232 17 339 179 162 163 161 156 159 162 159 159 157 152 150 152 159 168 171 165 174 192 159 169 179 179 211 259 215 253 274 274 282 291 293 250 187 165 162 169 163 161 165 163 181 184 164 156 149 147 151 152 159 166 167 170 171 173 176
338 336 332 331 331 329 329 328 327 327 326 326 326 323 319 314 306 299 292 283 260 239 235 212 185 169 175 167 199 215 23 350 172 162 169 169 160 164 172 172 167 160 151 148 162 166 159 162 167 179 169 163 173 170 179 225 317 293 283 290 275 278 289 298 186 166 155 160 175 153 142 160 167 208 200 159 159 158 154 157 159 165 171 171 172 172 176 178
337 335 331 331 330 329 330 329 329 329 327 327 328 327 320 312 303 291 282 266 235 224 215 193 174 161 159 177 230 228 36 66 167 167 171 172 167 169 174 176 177 173 161 152 171 174 159 164 180 185 131 174 172 169 219 282 311 285 286 295 288 296 16 76 128 160 160 155 168 152 140 182 192 201 170 154 159 162 160 160 165 172 174 174 174 175 179 180
336 334 332 331 330 329 330 329 331 333 332 333 332 327 317 306 296 278 267 246 214 208 194 178 171 162 167 243 244 231 246 51 164 174 174 174 172 170 173 175 178 179 171 165 173 176 167 166 185 188 131 233 160 164 295 282 291 269 267 286 294 303 68 83 123 158 156 151 169 181 180 184 196 194 153 156 162 163 166 166 171 177 177 178 178 179 181 182
335 335 332 330 331 330 331 331 334 335 336 339 335 327 318 305 287 265 248 219 197 187 175 164 162 157 179 258 295 284 235 231 186 182 178 175 166 159 171 176 177 178 172 167 175 179 170 142 158 178 224 289 339 314 295 274 290 273 255 242 290 297 91 87 145 163 150 160 179 203 256 82 177 184 161 161 166 166 171 173 176 180 180 181 181 183 184 186
335 334 331 330 330 331 333 334 336 338 340 343 339 337 334 317 286 252 227 198 180 164 155 151 155 156 263 267 286 319 192 190 195 190 186 180 165 149 167 175 177 180 166 140 172 188 182 143 144 181 189 233 288 291 289 27 9 343 242 209 207 275 88 96 155 177 160 164 187 209 251 40 85 170 160 165 173 169 173 176 180 183 183 184 183 186 188 188
335 335 333 332 333 333 334 336 339 340 343 347 351 10 12 355 332 220 188 167 159 149 147 153 164 180 283 281 159 139 170 190 204 196 191 187 178 154 148 153 155 170 172 150 145 180 182 171 158 184 198 194 226 247 186 205 181 152 242 224 158 241 258 108 147 183 160 149 185 216 266 30 34 154 158 164 177 175 173 176 180 183 185 187 186 189 191 190
335 334 334 334 335 336 337 340 342 341 347 356 16 49 50 50 82 108 125 134 132 130 134 153 162 188 265 262 167 167 199 207 212 197 190 189 184 155 138 133 137 146 156 162 139 147 164 175 168 172 219 198 175 172 195 202 185 164 212 213 73 249 269 146 145 173 171 162 188 210 244 287 58 142 164 168 179 179 177 179 181 184 185 187 188 190 192 191
335 333 333 334 333 335 338 342 342 342 349 12 65 71 74 79 94 105 112 117 112 109 107 121 155 196 229 242 225 208 266 225 207 185 183 183 174 154 139 127 138 141 141 152 150 147 162 177 184 178 192 199 194 197 194 192 184 171 185 195 168 195 240 266 107 158 174 183 192 196 225 243 195 146 171 179 183 184 183 182 184 186 185 186 188 191 191 190
338 335 335 335 334 335 338 341 341 342 349 51 97 82 85 88 95 107 112 118 124 139 126 154 190 251 230 240 292 310 300 251 194 164 169 166 155 141 123 125 135 140 149 160 161 163 165 160 181 196 199 198 192 195 196 108 141 150 144 162 135 157 205 272 351 171 179 185 196 198 221 238 219 174 181 184 184 191 191 186 189 193 192 191 191 193 192 192
340 338 337 337 336 338 340 342 342 341 350 57 142 105 86 88 96 111 114 169 219 252 292 207 201 274 307 267 307 323 315 217 166 160 165 163 150 129 110 127 134 145 161 160 157 166 176 171 187 201 191 178 169 187 206 110 97 120 108 110 82 323 200 133 351 199 191 201 209 210 226 243 230 192 188 185 183 193 195 192 194 198 201 199 196 195 194 196
339 338 339 340 339 340 342 341 342 342 359 39 153 171 84 53 348 327 312 256 235 245 261 243 210 254 279 276 300 334 351 124 94 143 163 162 153 139 130 149 148 159 168 148 135 143 193 198 192 182 152 148 164 189 204 188 161 189 171 154 119 232 244 34 2 343 204 216 222 208 232 250 242 214 190 182 186 195 197 193 194 197 200 203 200 196 195 194
338 338 339 341 339 339 341 337 341 356 12 46 90 107 113 36 332 256 253 291 269 238 241 248 238 257 270 272 268 260 192 153 119 132 152 158 169 168 159 175 168 158 152 150 142 148 195 206 169 142 136 138 148 180 191 193 204 213 210 233 209 198 274 52 18 359 195 217 269 195 231 251 247 229 198 191 195 200 199 197 197 193 194 199 199 197 194 192
339 340 340 340 337 339 340 335 349 40 13 56 100 99 82 359 337 216 197 285 287 267 214 217 227 247 266 269 236 192 181 186 147 147 156 160 180 182 159 176 172 147 157 175 172 166 191 198 150 136 144 149 137 153 170 178 201 207 208 228 204 151 250 163 64 38 169 223 303 196 246 259 255 243 215 207 207 205 203 204 203 195 194 197 196 197 195 193
344 344 341 339 339 341 341 346 64 34 356 99 122 71 5 354 358 187 189 292 285 292 240 211 224 229 259 271 183 174 180 207 156 149 164 164 152 155 165 168 161 153 169 183 182 175 160 138 144 142 151 165 165 155 170 190 198 203 218 233 228 193 237 238 33 11 207 226 258 254 263 260 247 250 234 215 210 210 206 205 207 200 197 196 194 198 198 197
347 344 342 342 345 350 355 101 78 8 351 145 127 23 357 353 357 179 197 308 244 300 224 177 242 215 239 252 167 189 185 125 196 136 161 164 143 151 167 147 172 175 163 156 176 189 137 122 152 152 151 168 179 173 185 205 206 210 215 227 241 232 226 230 353 321 257 203 189 236 252 189 131 265 269 224 208 213 207 204 209 202 195 195 197 200 198 198
348 345 346 348 354 9 70 120 23 353 2 129 31 353 350 350 348 172 198 314 106 356 338 140 219 196 212 207 159 209 171 124 313 44 125 154 141 151 159 154 224 171 153 146 174 205 140 138 164 163 159 168 190 198 188 193 213 226 199 211 230 228 222 222 230 271 261 134 132 238 262 251 101 31 353 321 230 219 212 211 214 207 200 199 201 202 198 198
351 348 348 354 4 23 74 123 351 357 92 92 345 343 344 345 4 162 224 274 98 8 321 76 273 176 27 288 142 210 166 132 125 73 56 62 123 240 172 173 186 137 148 154 172 198 153 153 163 157 160 174 199 206 178 186 213 218 145 183 213 216 217 216 217 238 272 330 249 212 251 269 88 24 6 349 285 240 234 235 231 226 221 213 208 204 201 199
355 350 348 356 6 18 42 35 360 22 27 331 332 335 336 337 146 168 271 81 59 346 309 25 292 284 340 17 78 244 120 106 137 88 22 35 46 239 188 183 182 149 150 182 180 160 161 177 173 160 167 183 198 189 163 182 213 220 150 172 207 217 217 211 218 227 256 291 244 184 199 232 74 15 10 20 21 6 334 294 262 246 240 232 225 215 207 203
357 351 349 354 358 7 11 356 359 141 324 327 327 331 332 330 155 212 264 91 27 326 163 9 290 296 334 71 47 17 29 34 63 48 357 30 35 31 170 173 162 135 126 211 192 136 143 196 181 177 198 200 193 180 167 183 208 184 137 131 135 167 191 197 211 197 154 248 241 177 190 212 63 28 11 19 17 2 345 326 297 263 244 236 235 227 218 211
358 354 358 3 359 352 348 342 344 331 320 319 324 330 335 145 170 261 78 59 359 309 256 325 288 300 294 132 58 24 37 34 18 37 42 34 33 38 68 84 103 127 118 212 198 132 85 174 137 164 218 218 192 176 175 187 185 131 142 160 144 109 108 132 140 155 183 220 240 188 191 216 53 40 21 15 3 350 337 335 334 310 258 229 223 222 221 217
0 3 14 19 10 355 347 338 329 321 314 315 324 331 31 145 240 46 76 55 328 340 360 342 342 13 66 101 73 16 40 39 8 28 50 32 38 38 29 341 39 117 140 161 184 126 101 137 127 103 22 35 164 158 178 197 181 151 168 185 187 172 174 181 148 181 207 202 253 132 130 96 61 45 21 9 1 356 349 344 343 339 320 250 217 209 210 210
7 15 20 23 19 8 345 326 320 316 314 315 327 354 172 183 37 52 25 333 332 359 2 349 350 36 80 78 57 21 44 51 19 44 62 44 54 51 38 30 358 203 166 172 177 134 114 114 70 185 85 38 140 168 146 190 190 183 181 177 180 173 176 197 188 195 207 165 73 132 117 81 78 63 23 11 8 3 358 352 346 346 347 334 262 216 204 200
12 20 16 17 18 6 348 337 328 324 329 327 76 120 154 82 52 6 326 343 27 6 360 350 346 38 82 79 61 28 48 51 8 36 63 47 66 74 58 40 14 260 176 181 171 151 149 112 32 86 140 21 345 192 157 165 189 195 189 186 189 174 175 188 177 177 201 154 98 178 162 119 116 73 28 22 15 6 4 2 359 357 355 356 347 270 214 204
1 6 6 10 11 2 354 351 344 342 352 36 143 73 66 72 26 324 321 340 331 336 351 337 347 57 65 63 41 9 52 54 24 37 55 46 54 43 29 30 20 5 310 236 159 170 174 145 44 30 24 1 5 304 323 153 174 188 192 191 198 201 189 183 177 179 178 139 109 164 190 146 138 89 41 36 22 14 14 11 12 14 9 7 14 14 352 239
341 333 355 6 6 1 358 358 356 353 353 75 83 55 61 64 340 321 339 332 312 326 341 336 7 65 71 54 27 18 41 55 29 40 52 57 53 24 357 6 11 11 315 238 131 259 151 105 21 1 328 353 8 337 318 165 164 161 184 193 200 220 209 148 172 177 161 134 114 128 101 96 121 106 61 41 27 21 20 18 20 18 13 15 22 20 9 350
342 326 354 8 6 1 2 6 5 357 331 87 67 56 59 71 340 325 326 322 320 317 317 341 26 51 75 55 27 24 30 48 27 35 52 56 52 28 3 338 1 13 1 305 98 27 137 100 19 360 142 36 3 334 18 11 182 152 171 189 174 317 288 140 137 45 207 173 143 129 119 107 138 123 50 30 26 23 21 23 22 16 14 20 22 15 5 356
349 333 4 10 6 3 10 24 30 32 74 77 74 68 68 86 357 317 310 306 300 300 301 9 27 14 58 65 25 2 5 37 25 24 47 31 35 13 352 327 341 11 7 333 39 20 149 123 64 27 114 26 356 256 106 38 11 168 173 162 109 62 318 218 158 154 191 186 143 108 125 115 167 155 33 22 22 20 19 21 21 18 17 20 19 12 5 357
351 345 18 6 3 7 24 47 67 77 76 71 79 91 79 27 16 339 322 307 284 303 12 70 38 353 32 84 44 2 346 6 24 36 65 28 36 9 351 333 324 0 359 320 272 57 339 136 113 52 359 5 360 242 137 32 18 37 133 117 110 184 188 186 182 178 187 180 127 114 122 82 43 3 5 17 20 16 17 18 18 20 19 17 15 10 7 2
0 17 26 357 358 16 47 60 66 64 71 71 73 85 37 351 6 349 340 337 308 337 28 56 42 40 51 68 88 28 23 55 53 49 67 22 37 34 11 346 307 343 349 338 359 134 321 184 135 44 351 294 15 34 25 358 9 60 119 83 9 278 190 182 199 191 193 176 140 147 157 100 51 343 345 28 26 14 19 18 17 22 19 17 15 9 8 7
7 72 19 352 353 23 55 57 56 41 63 71 45 51 31 333 343 351 354 6 20 15 40 46 20 57 72 63 77 52 38 52 55 60 56 19 46 73 23 7 314 327 330 340 38 34 302 343 124 23 7 186 65 43 36 17 16 32 96 68 31 338 266 154 80 11 238 180 156 165 161 109 51 342 7 45 33 17 22 19 18 24 19 19 17 11 10 9
1 85 354 348 349 35 57 51 48 34 61 67 39 35 24 6 351 355 359 12 36 47 55 64 52 61 88 70 58 50 51 58 50 60 70 28 31 48 9 358 318 311 318 334 28 18 354 23 81 40 39 82 97 65 38 35 31 39 52 36 358 334 203 184 176 121 19 154 165 170 149 105 32 356 26 44 34 23 22 18 21 23 18 19 16 11 12 10
23 64 343 346 353 58 68 51 24 37 69 72 47 19 9 17 2 355 357 9 41 54 48 56 52 46 56 61 54 55 71 66 38 50 83 55 42 31 345 336 313 296 334 6 12 4 1 49 67 73 57 75 121 128 35 27 30 50 51 34 4 356 341 232 189 147 103 86 88 113 115 100 38 12 33 43 35 28 23 19 23 23 19 20 17 13 12 11
38 16 353 357 360 92 80 58 55 54 60 70 62 29 26 31 12 6 8 12 25 41 41 40 34 36 46 49 60 73 67 57 39 48 96 77 46 25 330 332 338 342 2 25 10 358 5 44 65 90 87 111 182 199 349 14 13 60 43 26 19 14 355 340 359 101 129 122 137 142 125 114 74 35 39 49 41 35 31 24 24 25 22 20 19 16 13 12
34 219 346 11 27 92 95 60 92 82 64 63 64 45 38 46 29 22 21 22 21 23 47 46 32 40 51 47 64 72 38 58 64 46 68 85 41 360 340 349 2 18 21 15 351 347 12 11 49 122 128 154 193 208 195 102 43 50 34 14 18 22 15 6 323 322 116 59 322 172 136 116 101 71 49 50 47 41 36 28 28 30 25 21 21 19 16 14
24 171 288 12 31 56 73 41 99 99 91 73 62 43 29 60 48 24 24 33 27 19 52 53 19 38 66 70 72 59 30 44 88 88 61 82 60 343 349 355 5 25 34 33 18 348 48 30 331 171 159 179 176 154 152 108 27 47 27 11 19 20 11 3 209 170 128 114 341 59 119 126 121 98 65 51 44 40 33 24 28 30 25 25 24 21 20 18
27 43 320 359 24 42 51 13 43 88 96 74 65 39 21 38 35 2 24 38 26 27 51 51 2 20 55 62 73 60 40 45 73 109 117 79 70 12 335 342 7 18 22 33 30 24 109 66 11 27 57 85 105 86 56 7 31 62 22 14 22 16 2 351 200 63 118 127 91 55 108 134 136 115 84 61 42 37 26 19 24 24 20 22 23 23 25 23
92 53 352 345 17 25 42 34 19 55 84 53 67 32 19 32 28 10 28 38 19 21 51 54 27 28 49 57 76 67 43 48 62 73 80 51 37 339 307 326 7 6 5 21 17 9 117 82 26 51 67 72 86 89 82 47 54 43 12 10 17 14 7 18 65 62 13 132 113 109 130 134 134 122 96 72 53 44 27 18 19 17 16 18 19 22 24 22
59 108 296 310 2 11 27 15 12 52 65 58 77 52 33 46 46 29 23 37 26 10 34 61 37 30 42 50 88 76 39 48 60 52 49 45 14 335 350 1 10 4 7 28 19 16 99 89 51 81 88 86 82 81 71 48 51 32 339 353 2 12 21 38 63 49 333 39 108 149 160 133 128 127 108 81 63 53 35 19 13 15 19 19 20 22 22 20
59 110 50 335 58 62 4 329 348 54 58 44 55 57 49 55 56 45 360 22 42 18 21 64 38 21 32 34 80 88 51 54 75 58 18 55 36 9 18 12 8 5 10 37 38 13 70 93 105 114 107 93 66 47 35 18 12 350 343 355 345 360 27 43 45 12 344 56 102 143 146 125 124 129 117 101 73 63 53 31 21 21 20 19 22 22 21 19
66 102 27 72 80 42 357 333 350 56 49 24 51 60 53 57 59 60 16 21 53 35 30 72 62 34 35 46 66 75 52 51 79 82 164 129 48 58 42 315 348 8 11 27 36 355 349 107 111 127 123 98 41 360 5 358 354 10 41 52 65 100 95 100 100 104 207 93 119 142 139 129 141 142 126 119 92 76 66 47 37 29 20 19 21 18 16 15
72 86 329 113 75 6 1 9 357 49 51 27 47 59 64 61 61 82 60 33 47 63 55 87 87 63 45 53 60 57 35 16 53 55 135 181 34 54 50 306 241 338 17 27 6 360 35 118 120 161 157 117 50 331 348 4 59 111 83 68 72 87 89 85 85 76 60 102 133 151 153 146 155 154 139 129 108 80 62 48 44 37 26 22 20 15 11 8
85 108 30 102 89 10 8 18 342 53 66 15 21 49 57 69 118 175 101 62 39 57 79 144 114 80 63 59 49 27 360 315 21 40 67 72 62 63 54 71 83 359 12 44 24 12 48 127 133 176 180 141 143 316 333 323 176 150 101 68 54 55 66 91 90 64 31 27 133 144 124 123 141 152 146 136 122 72 50 45 43 37 28 26 21 14 9 5
Height
808 807 805 804 802 800 799 797 796 795 794 793 791 790 789 789 787 787 786 785 785 784 783 782 781 780 779 778 777 777 776 775 774 775 773 763 760 763 764 766 768 769 772 774 776 778 781 783 785 786 788 789 791 792 794 793 792 796 804 811 811 807 803 796 795 793 793 795 797 797 796 799 803 800 796 795 799 801 802 802 801 800 799 800 804 807 811 815
808 806 805 803 802 800 798 797 795 794 793 792 791 790 788 788 787 786 785 785 784 783 782 781 780 779 778 778 777 776 775 773 773 771 764 758 759 762 763 766 767 768 770 772 774 775 778 782 784 785 787 791 793 792 795 794 793 799 804 809 808 802 797 791 791 789 789 793 795 796 796 798 800 799 796 800 806 803 805 807 804 806 806 805 806 810 813 815
807 806 804 802 801 799 798 796 795 793 792 791 790 789 788 787 786 785 784 784 783 782 781 780 780 779 778 777 776 776 775 773 771 764 756 755 757 759 762 764 765 767 769 771 773 775 777 780 783 785 788 792 793 793 797 795 795 798 802 809 804 796 794 789 788 787 786 789 794 796 795 798 798 796 797 801 806 805 807 807 806 810 810 808 808 810 814 815
807 805 803 802 800 798 797 795 794 792 791 790 788 788 787 786 785 784 783 782 782 781 780 780 779 778 778 777 776 775 774 773 766 757 755 755 755 757 760 762 764 767 769 771 774 776 778 781 783 784 789 794 794 794 798 796 796 797 800 805 797 793 795 788 785 785 784 786 791 794 795 799 797 795 798 800 805 807 805 801 801 806 808 808 809 810 813 815
806 804 802 801 799 798 796 795 793 791 790 789 787 786 785 784 783 782 782 781 781 780 779 779 778 778 778 777 776 775 775 773 762 754 755 754 754 757 759 761 764 766 769 772 775 777 779 781 783 786 789 794 796 796 798 793 793 798 798 796 792 792 795 787 783 784 784 786 790 794 797 798 796 796 798 798 804 804 799 797 797 799 802 805 808 810 813 815
805 803 802 800 798 797 795 794 792 791 789 787 786 785 784 783 782 781 780 780 779 779 778 778 777 777 777 776 776 775 775 770 759 755 755 754 755 757 760 762 764 766 769 772 775 778 780 782 784 789 790 793 796 796 795 791 792 800 797 791 790 790 791 786 783 784 784 787 792 793 793 793 797 799 797 797 801 797 792 793 795 797 799 803 807 810 812 814
804 802 801 799 798 796 794 793 791 790 788 786 785 783 782 781 780 780 779 779 778 777 777 776 776 776 776 776 776 776 775 767 757 756 756 755 757 759 762 764 765 767 769 772 774 777 779 783 785 787 791 793 795 794 793 791 792 799 798 791 788 786 787 783 782 784 784 788 789 788 790 793 799 800 797 798 798 793 791 792 794 798 801 804 808 810 812 814
803 802 800 798 797 795 793 792 790 789 787 785 783 781 780 779 778 778 777 777 777 776 776 775 776 776 776 776 775 776 774 764 756 758 757 757 759 761 764 765 767 768 769 771 773 775 778 783 785 786 792 793 792 792 791 792 795 798 797 790 786 785 783 779 780 783 784 786 786 787 792 795 795 796 798 799 797 793 793 794 796 799 803 806 809 811 813 815
802 800 799 797 795 794 792 791 789 787 786 784 781 779 778 777 776 776 776 775 775 775 774 774 775 775 776 776 776 775 767 759 757 758 758 759 760 763 765 766 768 769 770 773 772 775 778 782 784 784 789 790 789 791 789 794 797 793 792 788 786 785 780 779 781 782 784 785 786 791 795 795 792 795 800 799 796 794 793 796 798 801 805 807 809 811 813 815
801 799 797 795 794 792 791 789 788 786 784 782 779 777 776 775 774 773 773 773 773 773 773 774 774 775 776 775 776 772 761 756 757 758 759 760 761 764 766 767 769 769 770 773 774 775 776 779 781 780 785 787 788 789 789 793 791 787 787 786 785 783 780 779 781 782 784 785 786 792 797 795 792 797 803 798 793 794 795 799 800 802 806 808 809 811 813 816
800 798 796 794 792 791 789 788 786 784 782 780 777 775 773 772 771 771 771 771 771 772 772 772 773 775 775 774 775 769 758 757 757 758 760 760 762 764 766 768 769 770 771 773 775 775 776 778 778 780 785 787 788 790 788 787 785 784 786 786 783 781 782 781 782 783 784 788 787 788 796 797 795 800 801 796 792 793 797 801 801 804 806 807 809 811 813 816
799 797 795 793 791 789 787 786 784 782 780 777 775 772 771 769 768 769 768 769 769 770 771 771 773 774 775 775 772 765 758 758 758 758 761 761 763 765 766 768 770 771 771 773 775 776 777 778 778 783 787 785 788 792 788 783 783 784 785 789 785 780 785 786 785 785 785 790 786 786 800 802 800 801 796 792 792 793 797 801 803 804 806 807 809 811 814 815
798 796 794 791 789 787 786 784 782 780 777 775 772 770 768 766 765 766 766 767 768 768 769 771 772 773 775 772 764 760 759 759 759 760 761 762 764 766 768 770 771 772 773 773 775 776 778 778 779 782 783 785 789 789 784 782 783 786 785 789 789 786 791 789 786 786 787 790 783 788 806 804 798 797 793 791 792 795 800 802 803 804 805 807 809 811 813 814
797 795 793 790 788 786 784 782 780 778 775 773 770 767 764 763 763 763 764 765 766 768 769 771 772 773 775 767 758 758 759 759 761 760 761 763 765 767 769 771 772 774 774 775 776 777 778 778 779 781 782 784 785 783 784 786 786 788 789 790 793 795 795 790 787 788 792 791 782 791 807 802 794 794 792 791 791 795 801 802 803 804 805 806 808 811 813 813
795 793 791 788 786 784 782 781 778 776 774 771 768 765 762 760 760 760 762 764 765 767 769 771 772 773 774 766 757 757 758 759 760 760 760 762 764 767 769 771 773 774 776 777 777 778 779 779 781 784 785 782 784 788 792 792 789 791 796 797 796 797 796 792 788 787 794 793 785 794 806 799 793 792 789 790 791 795 800 802 802 803 805 806 807 810 812 812
793 791 789 787 784 782 780 779 777 775 772 770 768 765 762 760 759 759 761 763 766 768 770 772 772 772 773 765 757 757 758 758 758 759 760 761 762 765 768 771 773 775 777 777 778 778 779 781 782 785 786 786 789 793 795 797 796 794 797 800 798 796 796 795 791 786 788 793 791 796 803 800 796 793 789 790 792 795 799 801 802 803 805 805 807 808 810 812
791 789 787 785 782 780 778 777 775 773 771 770 768 765 763 762 760 760 763 765 768 770 771 772 771 773 768 759 757 758 757 756 757 758 760 761 763 763 767 771 774 776 777 778 779 779 780 783 784 786 787 790 791 794 802 809 806 799 797 798 799 798 797 797 796 789 785 792 796 797 801 800 797 794 792 792 792 795 799 801 802 803 804 805 806 807 808 811
790 788 785 783 781 779 777 776 774 772 771 770 768 767 765 764 764 764 765 768 770 771 773 772 772 773 766 757 758 758 755 756 756 757 759 762 763 764 766 769 772 775 778 780 780 781 783 784 786 790 792 793 793 795 805 808 802 800 799 798 799 799 799 798 796 791 788 793 796 799 802 799 795 795 794 793 792 795 798 799 800 801 803 804 805 806 807 809
788 785 783 781 779 777 776 774 773 771 770 769 769 768 767 767 767 767 767 769 770 770 771 770 768 769 765 758 756 755 753 755 756 756 759 761 763 765 766 768 771 775 780 784 783 782 784 787 791 795 795 793 793 793 796 796 793 795 796 796 798 798 798 796 792 788 787 795 798 799 801 796 794 795 795 793 792 795 798 798 799 800 801 803 804 805 806 808
786 783 781 779 777 775 774 773 772 771 769 769 769 768 769 770 770 769 769 768 766 763 763 763 763 762 760 757 755 754 753 753 754 756 758 760 762 765 767 770 773 777 780 783 785 782 781 789 794 792 789 788 790 790 790 791 792 793 795 797 799 799 796 793 791 786 784 795 797 793 796 794 792 793 792 792 794 796 798 799 800 800 800 801 802 803 804 806
784 781 778 776 774 773 772 771 770 769 769 768 768 768 770 772 772 771 769 765 761 759 759 759 759 759 756 755 755 754 755 754 753 754 757 759 760 765 770 772 776 782 781 781 783 782 783 790 789 784 783 785 787 789 789 792 794 795 796 798 800 800 796 792 792 788 784 793 795 791 796 795 790 791 789 790 795 796 795 797 798 798 798 798 800 802 803 804
783 780 777 775 773 771 770 770 769 769 768 768 767 768 769 771 771 770 770 767 761 757 759 758 758 758 754 754 754 754 757 757 756 755 756 759 760 765 772 773 776 781 781 781 784 788 791 789 783 780 781 783 788 789 791 794 795 795 796 799 800 798 796 794 793 790 787 793 794 793 797 793 786 786 787 788 790 790 788 789 792 794 797 798 799 801 802 803
781 778 775 774 771 770 769 768 768 768 768 768 768 768 769 770 768 768 769 771 765 757 757 758 758 758 755 754 752 753 757 757 758 758 755 758 762 764 769 773 776 778 782 782 783 791 795 786 780 780 780 784 790 791 793 795 795 796 796 799 800 798 798 798 796 793 790 791 792 794 796 791 786 786 786 784 784 784 784 785 786 789 793 795 796 799 801 803
780 776 775 772 770 769 767 767 767 767 768 768 768 769 769 768 768 768 768 770 769 760 755 756 755 756 755 752 750 753 756 755 756 756 753 756 762 764 766 770 775 779 781 781 782 787 788 781 777 781 782 784 790 793 793 795 796 796 796 796 797 797 798 797 796 795 791 790 791 796 800 794 790 792 788 783 782 784 784 785 787 788 790 792 794 795 797 799
778 776 774 771 769 768 766 767 767 767 768 767 768 769 768 768 767 767 768 772 772 762 755 755 755 754 751 750 751 751 753 754 754 753 752 753 759 764 766 768 772 779 781 781 783 784 783 779 778 783 785 784 789 793 793 793 796 798 795 792 792 794 796 797 797 797 797 799 794 796 807 803 793 794 792 786 786 787 786 787 789 789 789 791 793 793 794 796
777 775 772 770 769 767 766 767 767 767 767 767 768 768 767 767 765 766 770 776 774 762 757 758 756 753 750 751 752 750 756 758 753 751 752 752 754 758 767 769 769 776 779 779 782 782 780 779 778 782 785 787 790 792 791 791 797 800 793 788 789 792 795 797 798 800 803 804 796 794 807 807 795 796 796 791 792 791 789 789 788 788 789 789 790 791 791 793
776 774 771 770 768 767 767 766 767 767 766 768 768 767 767 766 765 765 771 782 780 765 760 759 756 753 751 752 750 753 763 761 753 753 753 754 754 754 765 771 770 774 774 777 786 783 777 780 782 782 784 788 790 791 790 788 796 799 789 786 790 791 794 796 797 801 801 800 797 793 799 804 803 802 798 794 796 796 794 794 791 789 789 788 788 789 788 790
775 772 770 769 768 768 767 767 768 766 766 768 766 766 766 764 765 766 775 791 784 764 760 759 753 751 750 751 751 754 760 757 758 760 753 753 756 756 763 768 768 771 770 776 788 782 775 780 783 782 785 789 787 786 785 786 793 791 784 787 789 789 792 791 794 800 800 803 805 798 796 805 813 808 798 795 800 803 801 798 794 790 789 789 788 788 788 788
774 771 770 769 768 767 767 767 767 766 766 766 765 765 764 763 765 768 780 792 780 763 761 757 753 753 753 753 755 756 755 755 761 762 754 755 757 756 764 767 766 771 770 772 778 777 774 776 775 777 783 784 782 781 781 784 788 784 783 788 787 789 792 792 797 799 804 812 809 798 794 803 818 816 806 806 809 810 806 799 793 788 786 787 787 787 788 788
773 771 769 768 767 767 767 767 765 766 765 764 765 764 762 764 767 776 790 791 777 766 761 757 757 758 757 757 760 760 760 761 762 760 759 762 759 758 764 766 766 770 773 771 772 774 774 772 772 775 779 778 777 778 779 780 781 781 785 788 790 793 792 795 798 798 811 819 803 794 793 796 816 823 814 815 815 811 808 802 796 789 783 783 783 784 786 787
773 771 770 768 767 767 766 766 764 765 764 763 763 761 763 767 771 787 796 784 774 770 763 762 763 760 761 763 766 767 766 767 766 764 767 768 766 768 770 772 772 773 777 777 775 774 774 774 776 777 777 777 777 780 781 778 777 781 786 790 798 802 799 802 804 805 820 820 801 797 795 797 823 832 818 814 812 808 807 805 801 795 787 782 779 779 780 782
773 772 770 768 767 767 766 765 763 763 762 761 761 760 766 774 781 793 792 778 778 777 770 770 768 766 767 767 773 775 770 773 773 771 776 777 778 783 786 789 790 787 786 784 780 777 777 777 778 778 777 776 779 782 786 785 781 783 786 792 806 815 815 818 816 814 818 811 803 801 797 808 832 832 818 815 811 808 807 804 802 798 793 786 780 777 776 777
774 772 771 769 767 766 765 764 762 761 760 759 760 761 767 782 793 796 789 782 784 779 772 774 772 769 768 769 778 779 774 780 779 777 781 781 784 790 790 792 793 791 789 785 781 781 784 783 779 780 779 778 780 781 787 791 786 785 787 793 806 816 824 830 826 822 816 806 804 801 799 817 833 826 816 815 812 808 806 803 801 798 794 790 784 777 775 775
773 772 771 769 767 766 764 762 761 760 759 758 760 763 775 792 799 794 790 787 783 777 774 777 775 771 771 776 782 779 779 786 784 781 782 782 789 795 793 790 790 792 789 785 785 786 791 793 786 784 783 780 781 781 781 782 782 783 781 785 798 801 808 820 818 815 812 805 805 805 806 820 831 826 817 811 810 807 805 802 799 797 793 790 786 781 779 778
773 772 771 768 766 765 762 761 760 759 759 757 761 773 790 804 803 796 794 788 783 780 778 777 776 775 778 782 782 778 779 786 787 786 788 791 798 802 801 797 794 794 793 790 791 789 793 795 787 783 784 783 784 783 779 779 783 785 779 783 793 787 788 803 806 801 798 800 807 812 814 816 818 818 810 807 810 807 805 803 799 798 796 791 789 787 786 784
772 771 771 768 766 765 762 760 759 759 758 757 770 790 800 804 802 798 794 787 785 786 782 778 778 781 785 785 785 782 777 782 789 791 795 800 802 804 804 801 797 797 797 794 794 793 794 794 787 784 784 783 784 783 779 782 784 785 785 789 788 779 780 796 806 802 797 803 813 817 819 820 819 817 810 808 812 809 807 806 803 802 800 795 794 792 790 788
772 771 771 769 767 766 763 760 759 759 757 760 780 799 801 798 798 796 793 788 787 788 785 785 788 791 792 790 792 790 782 784 789 792 800 804 804 806 807 803 798 798 799 796 796 795 794 793 789 788 787 783 782 781 779 779 779 782 785 783 781 782 784 790 803 810 805 809 819 820 822 826 827 825 816 812 816 815 812 810 808 807 803 800 798 795 793 790
772 771 771 770 770 768 764 762 761 758 759 770 788 798 798 796 794 793 793 790 788 787 786 790 793 795 795 795 799 796 788 789 794 797 803 807 807 809 809 806 799 795 797 795 794 796 795 794 791 790 790 786 780 780 783 780 777 780 782 778 782 791 793 794 803 809 806 812 824 828 827 829 832 831 825 821 822 820 817 814 813 811 808 805 802 798 796 792
772 772 774 774 772 770 767 764 762 759 765 783 797 798 796 795 792 791 791 790 789 789 790 793 793 794 796 798 801 799 793 795 800 803 806 810 811 808 809 810 802 796 796 794 794 798 796 795 793 788 787 788 785 788 799 797 784 779 780 780 784 788 790 793 795 794 797 811 825 830 832 833 834 833 829 826 824 821 821 819 816 814 812 809 805 802 798 795
774 775 777 775 772 772 768 764 764 768 779 794 800 798 796 796 793 791 789 788 789 790 793 796 795 795 800 800 800 801 800 802 804 806 810 813 813 809 807 810 808 801 797 794 795 798 796 794 797 791 786 791 799 805 812 809 798 790 789 791 794 792 789 790 794 795 795 804 814 821 831 837 833 830 828 825 824 823 822 821 818 816 813 811 809 805 802 799
776 779 781 776 773 772 768 768 777 784 792 798 800 799 798 796 795 793 790 789 790 790 792 796 796 798 801 801 802 803 805 807 808 809 812 814 815 813 807 808 811 806 799 796 796 798 797 796 799 802 799 804 813 814 811 809 807 802 802 805 806 802 796 792 800 805 800 802 806 807 824 840 834 829 828 825 824 824 823 822 819 817 814 813 811 809 806 804
781 787 785 778 776 772 770 781 791 793 796 799 801 801 799 798 798 796 793 791 791 791 792 795 798 801 803 803 804 805 807 811 813 812 814 816 816 816 811 808 809 806 801 802 802 800 800 800 803 811 813 813 815 813 809 809 808 804 806 809 807 806 803 797 799 804 803 809 807 801 819 841 837 830 828 826 826 825 824 823 821 819 817 815 814 812 810 808
787 790 784 778 777 773 776 791 797 796 798 801 801 801 800 801 801 798 796 795 795 795 796 799 801 803 804 805 805 807 809 813 817 816 816 818 816 814 813 808 805 804 802 804 805 801 802 807 811 815 816 813 810 810 810 809 808 808 810 811 808 809 810 805 804 803 803 812 810 805 824 842 837 830 829 826 827 826 825 825 823 822 820 817 817 816 814 812
791 791 785 781 777 773 781 796 800 800 802 801 801 802 802 802 803 802 801 801 800 800 801 805 804 803 806 806 806 809 810 813 819 819 817 819 816 813 812 809 805 803 803 805 806 801 805 815 815 814 818 817 813 811 811 809 811 815 817 815 813 811 810 810 809 805 808 821 817 808 824 839 835 831 830 828 828 828 827 826 824 824 823 820 819 818 817 816
791 791 790 786 781 780 790 799 799 801 805 804 805 807 805 805 806 806 806 805 805 805 805 807 807 806 807 806 807 810 809 809 816 820 818 818 816 813 812 810 807 805 803 805 805 802 811 823 819 811 813 816 815 815 816 817 818 820 821 819 816 814 812 812 809 805 812 826 823 815 825 836 834 832 833 831 830 831 830 828 826 825 825 823 822 820 819 818
794 797 798 794 790 791 798 801 799 801 805 806 808 810 811 810 808 807 806 806 807 806 807 809 809 808 807 807 810 814 813 811 813 818 820 819 817 815 814 812 809 807 805 805 805 806 816 827 825 817 813 814 820 826 826 825 823 823 824 821 819 819 817 812 809 810 814 821 826 827 829 833 835 834 835 835 833 834 833 831 829 828 826 825 824 822 821 820
798 806 809 805 802 801 802 804 804 804 806 808 812 814 815 814 812 808 806 808 810 809 809 811 812 811 812 813 815 818 819 816 815 819 822 821 818 816 815 813 810 809 807 806 806 810 817 824 827 826 824 824 827 830 829 826 826 827 827 824 822 822 819 814 814 819 818 817 828 835 830 832 837 836 836 837 835 836 836 834 833 831 829 828 826 824 823 822
801 809 812 809 810 812 811 809 808 807 807 809 814 817 817 815 815 815 812 810 811 811 811 814 816 816 817 817 818 821 823 822 822 825 825 824 822 818 815 813 811 810 810 808 809 812 817 825 828 828 830 831 830 829 828 827 827 828 827 825 825 825 824 823 822 825 823 820 828 834 832 833 836 835 836 837 836 837 838 837 835 832 831 829 827 826 824 823
804 808 811 809 811 816 817 814 811 809 809 811 814 817 818 817 818 819 817 814 814 814 814 818 821 820 820 818 817 822 825 824 825 827 826 825 826 823 820 818 814 812 811 812 815 816 818 825 829 829 831 833 832 831 830 828 828 828 827 827 828 828 828 829 828 827 826 825 828 831 833 835 836 835 836 836 836 837 838 838 836 834 832 831 829 828 827 826
805 807 809 809 812 815 816 816 813 811 812 814 816 819 820 819 819 819 818 818 819 818 817 820 823 821 820 818 817 821 824 822 823 825 825 826 827 825 825 823 819 816 815 817 819 818 819 827 830 829 831 834 834 832 830 830 831 830 828 828 828 828 828 829 830 828 827 829 830 831 836 841 839 837 836 837 838 838 838 839 840 838 836 833 831 831 829 829
807 808 808 808 814 817 817 818 818 815 815 817 818 819 820 819 820 821 820 820 821 820 819 821 822 821 821 820 821 823 823 822 821 821 822 823 824 823 823 823 822 820 819 822 823 819 820 828 832 829 830 834 836 834 832 832 831 830 830 830 828 828 828 829 829 828 827 828 830 831 835 839 839 837 837 838 839 840 841 841 841 841 840 837 835 834 833 832
809 810 808 808 815 820 820 820 820 819 819 819 820 820 820 820 821 821 820 821 821 821 821 821 820 820 822 823 824 824 822 822 822 822 823 823 823 823 823 823 824 824 823 823 825 825 824 827 830 830 830 833 836 835 834 832 830 829 831 833 832 830 830 830 830 830 830 829 828 828 830 834 837 838 838 840 840 841 843 843 842 843 842 840 839 838 836 834